Wind_Speed
19 19 20 20 20 20 21 22 22 23 24 24 24 23 21 20 20 20 20 20 19 18 17 17 17 18 18 18 17 17 16 15 15 15 14 14 13 12 11 10 9 8 8
19 19 18 19 19 20 21 21 22 22 23 24 24 24 23 21 21 21 21 20 20 20 19 20 19 19 19 20 20 19 18 17 17 16 16 15 15 14 12 12 11 10 9
19 18 18 18 18 19 20 21 22 22 23 25 26 25 25 24 24 23 22 22 22 22 21 21 21 22 21 21 22 21 21 20 19 18 17 17 16 16 15 14 13 12 11
18 18 18 18 18 19 19 20 22 22 24 25 27 27 27 26 26 26 25 24 23 23 23 23 23 23 24 23 23 23 23 23 22 21 20 19 18 18 17 16 15 13 12
18 18 18 19 20 19 20 21 21 22 24 25 27 28 29 29 27 27 27 27 26 25 25 25 25 25 26 26 26 25 25 24 24 24 23 22 21 20 19 18 17 16 15
18 19 19 20 20 20 20 21 21 21 23 25 26 27 29 29 29 28 28 29 29 28 27 26 26 27 28 28 28 27 27 26 26 27 26 24 23 22 22 20 19 18 17
18 19 19 20 20 20 21 21 21 22 24 24 25 27 28 29 31 31 29 29 29 30 29 29 28 28 29 31 31 30 29 28 27 29 29 27 26 25 24 23 22 20 19
18 19 19 19 20 20 21 22 23 23 24 25 25 26 27 29 30 31 31 30 30 31 31 31 31 30 30 32 33 33 32 31 30 31 30 30 29 29 27 26 25 24 22
18 18 19 19 20 20 21 22 23 24 25 25 26 26 27 28 29 30 31 32 32 32 33 33 32 32 32 32 34 34 34 34 33 33 33 32 32 31 30 29 28 26 25
17 18 18 19 20 21 21 22 23 24 25 26 26 27 28 28 29 31 32 33 33 33 33 34 34 33 34 35 35 36 36 37 36 36 35 35 34 33 33 32 31 29 28
16 17 18 19 20 21 22 22 23 24 25 26 27 28 29 30 31 32 33 33 34 34 35 35 35 35 36 36 37 37 38 38 38 39 38 37 36 36 35 35 34 32 31
16 17 18 18 19 21 22 22 23 24 25 26 27 28 30 31 32 33 34 35 36 36 36 36 37 37 38 39 38 39 39 39 39 40 40 39 39 37 37 37 36 35 34
17 17 18 19 19 20 22 22 23 24 25 26 27 28 29 31 32 33 34 36 38 38 38 38 38 39 39 40 40 40 40 41 41 41 42 42 41 40 39 39 38 37 36
17 18 18 19 20 20 21 22 23 25 26 27 28 29 30 31 32 33 35 36 37 39 39 39 40 40 40 41 42 42 42 43 43 43 43 43 43 42 42 41 40 39 38
18 18 18 19 20 20 22 23 23 25 26 27 29 30 31 32 34 35 36 37 37 38 39 41 42 42 42 42 42 43 43 44 44 44 44 43 44 43 43 43 42 41 41
19 19 19 20 21 21 22 23 24 25 26 27 28 30 31 33 34 35 37 38 38 39 39 41 42 43 43 43 43 43 44 44 44 45 45 45 45 44 43 43 42 42 43
19 20 20 21 21 22 23 24 24 25 26 27 28 30 31 33 34 36 38 39 40 40 40 41 43 44 45 45 44 44 44 44 45 45 46 46 46 45 45 44 43 43 44
21 21 22 22 22 23 24 25 25 26 26 27 28 30 31 33 34 36 37 39 41 42 42 42 43 44 45 46 46 45 45 45 45 45 46 46 47 46 45 44 44 44 43
23 23 23 23 24 24 25 25 26 27 27 28 29 30 31 32 34 35 37 38 40 42 42 43 43 44 46 46 46 47 46 46 45 45 46 47 47 48 47 45 44 45 44
24 24 24 24 25 25 25 26 26 27 27 29 29 30 31 31 32 34 36 37 39 41 42 42 44 44 45 47 47 47 47 46 46 46 46 46 47 48 48 47 45 45 45
25 25 24 25 25 26 26 26 26 27 27 28 28 29 29 30 31 32 33 35 37 39 40 41 42 43 44 46 47 47 47 47 47 47 47 48 48 48 48 48 47 46 45
26 26 26 26 26 26 26 26 26 27 27 28 28 28 28 28 29 30 32 34 35 37 38 40 40 42 43 44 45 47 47 48 47 48 48 48 49 48 48 48 48 47 47
27 27 27 27 27 27 27 27 27 27 28 28 27 27 27 27 27 29 30 31 33 35 37 38 39 40 42 43 44 45 46 47 47 47 47 47 48 48 49 48 48 48 48
28 28 28 28 28 28 28 28 28 28 27 27 27 26 26 26 26 27 27 28 30 32 35 36 37 38 41 42 42 43 44 45 46 47 47 46 48 48 48 49 49 48 48
29 29 29 29 29 29 29 29 29 28 27 27 26 26 25 25 25 25 26 27 28 30 32 33 35 36 38 40 41 42 42 44 45 46 47 46 47 48 48 48 48 48 48
29 30 30 30 30 30 30 30 29 28 27 27 27 26 24 24 24 25 25 25 26 27 29 31 33 35 36 38 39 40 41 41 43 44 46 47 47 48 47 48 48 48 48
Wind_Direction
274 272 271 270 267 262 262 262 259 256 253 251 251 250 252 249 246 243 242 241 236 236 233 229 227 221 216 214 212 210 208 207 205 204 202 200 196 193 192 190 188 185 180
273 274 272 269 268 264 262 262 259 257 253 250 248 248 250 249 247 245 246 241 240 236 234 229 228 226 221 218 215 214 213 212 211 209 208 207 205 202 201 199 197 196 193
273 274 272 271 269 266 263 261 258 256 252 249 248 247 247 249 246 244 244 243 242 238 236 233 229 227 225 222 219 217 216 216 216 214 213 212 210 208 207 206 204 203 202
272 273 271 270 269 266 264 262 258 254 252 250 249 249 249 249 246 243 243 243 242 242 240 237 231 228 227 225 223 221 220 219 218 218 217 216 214 213 211 211 210 209 208
275 271 270 268 267 266 264 262 259 255 253 251 250 250 249 248 247 244 242 241 241 241 241 241 236 230 228 226 225 224 223 222 221 220 220 219 218 217 216 214 214 214 214
274 272 270 269 268 266 265 261 258 255 253 252 252 252 250 249 248 246 244 242 241 242 242 240 236 233 231 227 226 226 226 226 225 222 221 222 221 220 219 218 217 217 217
275 275 274 272 268 267 265 263 260 257 255 253 252 252 250 248 248 247 246 243 242 242 240 238 237 237 234 230 228 227 228 228 228 224 223 222 222 222 221 221 220 219 219
278 276 275 272 269 266 265 263 262 260 257 255 253 252 251 249 248 246 245 244 243 242 240 239 239 237 235 233 230 229 229 230 229 226 225 224 223 223 223 224 223 223 221
281 278 275 274 272 270 267 265 263 261 259 257 255 253 251 251 249 246 245 245 245 244 240 238 239 237 235 233 231 230 229 230 229 228 227 226 225 225 225 224 225 224 224
288 284 280 277 274 272 270 267 265 263 261 259 257 255 253 252 251 248 246 245 245 243 242 241 239 237 236 235 233 231 232 232 230 228 227 227 227 227 226 225 225 225 225
291 288 285 281 277 275 273 271 269 266 264 263 261 258 256 254 253 250 248 246 245 243 243 242 241 238 236 234 233 233 232 232 231 230 228 228 227 228 228 227 226 227 227
298 294 291 286 283 280 278 275 273 270 268 266 264 262 260 257 255 252 250 248 247 244 243 242 241 239 236 235 234 233 232 232 231 230 230 229 229 229 230 229 227 227 227
304 299 294 291 287 285 282 280 277 275 272 269 267 265 262 260 258 255 252 250 248 247 244 242 241 241 239 236 234 234 233 233 232 231 232 231 231 231 230 229 228 228 228
310 305 300 296 293 290 286 283 280 278 275 272 269 267 265 263 261 258 255 252 250 248 246 243 242 241 240 238 236 236 234 233 232 232 232 232 231 232 231 229 228 229 229
317 311 306 301 298 294 290 286 283 281 278 275 272 270 267 265 263 260 257 254 251 248 246 245 243 242 241 239 237 237 235 233 233 231 230 231 231 231 230 229 229 229 230
322 317 311 306 302 297 294 291 288 286 282 278 275 272 269 266 264 262 259 256 253 250 247 245 244 242 242 240 238 236 235 233 232 231 231 231 229 229 230 230 229 230 230
327 323 317 311 307 303 300 296 293 290 287 283 279 275 272 269 266 263 261 258 255 251 248 245 244 243 242 241 239 236 235 233 232 231 231 230 229 229 230 231 231 231 231
331 328 323 318 313 308 304 300 297 295 291 288 284 279 275 271 268 264 261 258 256 253 249 246 244 243 241 240 239 237 236 234 232 231 231 229 228 229 230 231 231 231 230
335 333 329 325 320 315 310 305 302 299 295 291 288 284 279 274 270 266 263 260 256 253 250 247 244 243 241 240 238 236 235 234 233 232 232 230 230 230 230 231 230 230 230
338 335 332 328 324 320 316 312 308 304 300 296 292 288 283 278 273 269 265 260 257 253 250 247 245 243 242 240 238 236 235 234 232 232 231 231 230 230 230 230 230 229 230
339 336 333 330 326 323 319 315 312 310 307 303 298 293 287 281 276 272 266 261 257 254 250 247 245 242 241 240 238 236 234 233 232 232 231 231 230 229 229 228 228 228 229
340 338 335 333 330 327 323 319 315 314 311 308 303 297 290 285 279 275 270 263 258 254 250 247 245 243 241 239 238 236 234 233 231 231 232 232 232 230 229 229 228 228 228
338 337 335 334 331 328 325 322 319 317 314 311 307 301 295 289 283 279 273 266 260 254 251 248 245 243 240 238 237 236 234 233 231 231 230 230 231 230 230 229 227 228 228
337 336 335 334 332 330 327 325 322 319 317 314 311 306 299 293 288 282 276 269 263 257 251 247 244 242 239 237 236 235 234 232 231 231 231 230 230 229 228 229 228 228 227
336 336 336 334 332 330 329 328 326 323 321 318 314 310 304 298 292 286 279 273 266 259 252 247 243 240 239 237 235 234 233 232 231 231 229 229 229 228 228 228 228 227 227
337 336 335 335 333 331 330 329 328 325 323 321 318 313 307 301 296 291 284 276 269 261 254 248 243 239 238 236 234 233 232 231 231 230 229 228 227 227 228 227 227 227 228
Height
5868 5868 5868 5868 5868 5868 5869 5870 5871 5871 5873 5874 5875 5877 5878 5880 5882 5883 5885 5887 5888 5890 5892 5894 5896 5898 5900 5902 5905 5907 5909 5911 5913 5915 5917 5919 5920 5922 5924 5925 5926 5928 5929
5863 5863 5862 5863 5862 5863 5864 5865 5866 5866 5867 5869 5871 5872 5873 5874 5876 5878 5880 5882 5884 5886 5888 5890 5892 5894 5896 5899 5902 5904 5907 5909 5911 5913 5915 5917 5919 5921 5923 5924 5926 5927 5929
5858 5858 5858 5858 5858 5858 5858 5859 5860 5861 5862 5864 5865 5866 5868 5869 5871 5873 5875 5877 5879 5881 5883 5885 5887 5890 5893 5895 5898 5901 5903 5906 5908 5911 5913 5915 5917 5919 5921 5923 5925 5926 5928
5853 5853 5853 5853 5853 5853 5853 5854 5855 5856 5857 5858 5859 5861 5862 5863 5865 5867 5870 5872 5874 5876 5879 5881 5883 5885 5888 5891 5893 5896 5899 5902 5905 5908 5910 5913 5915 5917 5919 5921 5923 5925 5927
5848 5848 5848 5848 5848 5848 5848 5849 5849 5850 5851 5852 5853 5855 5856 5858 5859 5861 5863 5866 5868 5870 5873 5875 5878 5880 5883 5886 5889 5892 5895 5898 5900 5903 5906 5909 5912 5914 5917 5919 5921 5923 5925
5844 5843 5843 5843 5842 5843 5843 5843 5844 5844 5845 5846 5847 5848 5850 5851 5853 5855 5857 5859 5862 5864 5867 5869 5872 5874 5877 5880 5883 5887 5890 5893 5896 5899 5902 5905 5908 5911 5913 5916 5918 5921 5923
5838 5838 5837 5837 5837 5837 5837 5837 5838 5838 5839 5840 5841 5842 5843 5845 5846 5848 5850 5853 5855 5858 5860 5863 5865 5868 5870 5873 5877 5881 5884 5888 5890 5894 5897 5900 5904 5907 5910 5912 5915 5917 5920
5833 5833 5832 5832 5832 5831 5831 5832 5832 5832 5833 5834 5835 5835 5837 5839 5840 5841 5843 5845 5848 5850 5853 5856 5858 5861 5864 5867 5871 5874 5878 5881 5884 5888 5891 5895 5898 5902 5905 5908 5911 5914 5916
5828 5827 5827 5827 5826 5826 5826 5826 5825 5826 5826 5827 5828 5829 5830 5831 5833 5834 5836 5838 5840 5842 5845 5848 5851 5854 5856 5860 5863 5867 5871 5874 5878 5881 5885 5889 5893 5896 5900 5903 5906 5909 5912
5823 5822 5821 5821 5820 5820 5819 5819 5819 5819 5819 5820 5821 5822 5823 5824 5825 5827 5828 5830 5832 5834 5837 5840 5843 5846 5849 5852 5856 5859 5863 5867 5870 5874 5878 5882 5886 5890 5894 5897 5901 5904 5907
5818 5817 5816 5815 5814 5813 5813 5813 5812 5812 5812 5812 5813 5814 5815 5816 5817 5818 5820 5822 5824 5826 5829 5831 5834 5837 5841 5844 5848 5851 5855 5859 5862 5866 5870 5874 5879 5883 5887 5891 5894 5898 5901
5814 5812 5810 5809 5808 5807 5806 5806 5805 5805 5805 5805 5805 5805 5806 5807 5808 5810 5812 5813 5815 5817 5820 5823 5825 5828 5831 5835 5839 5843 5846 5850 5854 5858 5862 5867 5871 5875 5879 5884 5888 5892 5895
5809 5807 5805 5804 5802 5801 5800 5799 5798 5798 5797 5797 5797 5797 5797 5798 5799 5801 5802 5804 5806 5808 5810 5813 5816 5819 5822 5826 5830 5833 5837 5841 5845 5850 5854 5858 5863 5867 5871 5876 5880 5885 5889
5804 5802 5800 5798 5797 5795 5794 5792 5791 5790 5790 5789 5789 5789 5789 5789 5789 5791 5792 5794 5796 5798 5800 5803 5806 5809 5812 5815 5819 5823 5827 5831 5836 5840 5845 5849 5854 5859 5863 5867 5872 5876 5881
5800 5797 5795 5793 5791 5789 5787 5786 5784 5783 5782 5781 5780 5780 5779 5779 5780 5780 5781 5783 5786 5788 5790 5792 5795 5798 5801 5805 5809 5813 5817 5821 5826 5831 5835 5840 5845 5849 5854 5858 5863 5868 5873
5795 5792 5790 5787 5785 5783 5781 5779 5777 5775 5773 5772 5771 5770 5770 5769 5769 5770 5770 5772 5774 5776 5779 5781 5783 5786 5790 5794 5798 5802 5806 5810 5815 5820 5825 5830 5834 5839 5845 5849 5854 5859 5864
5791 5788 5785 5782 5779 5776 5774 5771 5769 5767 5765 5763 5761 5760 5760 5759 5759 5759 5759 5760 5762 5764 5767 5770 5772 5775 5778 5782 5787 5791 5795 5799 5804 5809 5814 5819 5824 5830 5835 5840 5845 5850 5855
5787 5783 5779 5776 5773 5769 5766 5763 5761 5758 5756 5754 5752 5750 5749 5748 5747 5747 5747 5748 5749 5751 5754 5758 5760 5763 5766 5770 5775 5779 5784 5789 5793 5798 5803 5808 5814 5819 5825 5830 5835 5840 5845
5782 5778 5774 5770 5767 5763 5759 5756 5753 5750 5747 5745 5742 5740 5738 5737 5736 5735 5735 5736 5737 5738 5741 5745 5747 5750 5754 5758 5762 5767 5772 5777 5782 5787 5792 5798 5803 5809 5815 5820 5825 5831 5836
5778 5774 5770 5765 5761 5757 5753 5749 5745 5742 5739 5736 5733 5730 5728 5726 5725 5723 5723 5723 5724 5725 5728 5731 5735 5738 5741 5745 5750 5755 5761 5766 5771 5776 5781 5786 5792 5798 5804 5810 5816 5821 5826
5774 5770 5765 5761 5756 5751 5747 5743 5739 5735 5731 5727 5723 5720 5718 5715 5713 5712 5711 5711 5712 5713 5715 5718 5722 5725 5729 5732 5737 5743 5748 5754 5759 5765 5770 5776 5781 5787 5793 5799 5805 5811 5817
5771 5766 5761 5756 5751 5746 5741 5736 5732 5728 5723 5719 5715 5711 5708 5705 5703 5701 5700 5699 5700 5701 5703 5706 5709 5713 5716 5720 5725 5730 5736 5742 5748 5754 5758 5764 5770 5776 5782 5789 5795 5801 5806
5767 5762 5756 5751 5746 5740 5735 5730 5725 5720 5716 5711 5706 5702 5699 5696 5693 5691 5689 5689 5689 5689 5691 5694 5697 5701 5704 5709 5713 5718 5723 5729 5736 5741 5746 5753 5759 5765 5771 5777 5784 5790 5795
5763 5757 5752 5746 5741 5735 5730 5724 5719 5713 5708 5703 5698 5694 5690 5687 5684 5682 5680 5679 5678 5678 5680 5683 5686 5689 5692 5696 5701 5706 5711 5717 5724 5729 5735 5742 5748 5754 5760 5766 5772 5778 5784
5758 5753 5747 5741 5736 5730 5724 5718 5712 5707 5701 5696 5691 5687 5682 5679 5676 5673 5671 5669 5668 5668 5669 5671 5674 5677 5681 5685 5690 5695 5700 5706 5712 5717 5723 5730 5736 5742 5748 5755 5761 5767 5774
5754 5748 5742 5736 5731 5725 5719 5712 5707 5701 5695 5690 5685 5680 5675 5672 5668 5665 5663 5661 5660 5659 5659 5661 5664 5667 5670 5674 5679 5684 5689 5695 5701 5706 5712 5719 5725 5730 5737 5744 5750 5756 5763